Location: Benque
(43.2594°N, 0.9178°E)
Time: 04:55:11
(UTC+00:00)

SL-16 R/B - Pass Details

Date: 24 January 2020
Orbit: 841 x 848 km, 71.0° (Epoch: 18 February)

Event Time Altitude Azimuth Distance (km) Brightness Sun altitude
Rises 19:05:40 0° 329° (NNW) 3,416 5.7 -23.3°
Reaches altitude 10° 19:08:12 10° 324° (NW) 2,475 5.0 -23.8°
Maximum altitude 19:13:36 47° 253° (WSW) 1,111 3.2 -24.7°
Drops below altitude 10° 19:18:58 10° 181° (S) 2,455 4.6 -25.7°
Sets 19:21:29 0° 175° (S) 3,384 5.3 -26.2°
